Location: ?
(35.3436°N, 139.3168°E)
Time: 07:31:10
(UTC+00:00)

CZ-4B R/B - Pass Details

Date: 29 October 2020
Orbit: 808 x 882 km, 99.1° (Epoch: 02 December)

Event Time Altitude Azimuth Distance (km) Brightness Sun altitude
Rises 20:33:02 0° 20° (NNE) 3,349 6.4 -6.6°
Reaches altitude 10° 20:35:29 10° 26° (NNE) 2,407 5.8 -6.1°
Maximum altitude 20:40:37 49° 100° (E) 1,037 4.3 -5.1°
Drops below altitude 10° 20:45:41 10° 175° (S) 2,382 5.8 -4.1°
Sets 20:48:05 0° 181° (S) 3,311 6.5 -3.6°
